User: anonymous   Login
Location: Unspecified
(42.3650°N, 71.1030°W)
Time: 01:46:27
(UTC+00:00)
Language:

A-11 Canister half - Orbit

View from above orbital plane
View from above orbital plane
View from above satellite
View from above satellite

Ground track
Ground track

The orbit data is extracted from the following two-line orbital elements,

1    51U 60009C   24164.36641362 -.00000062  00000-0  22000-3 0  9995
2    51  47.2098 163.0737 0106697 172.6746 187.5628 12.18328231841570
Epoch (UTC): 12 June 2024 08:47:38
Eccentricity: 0.0106697
inclination: 47.2098°
perigee height: 1515 km
apogee height: 1685 km
right ascension of ascending node: 163.0737°
argument of perigee: 172.6746°
revolutions per day: 12.18328231
mean anomaly at epoch: 187.5628°
orbit number at epoch: 84157

The dashed part of the orbit path shows where the satellite is in the earth's shadow,  

DLR